TimePDT,TemperatureF,Dew PointF,Humidity,Sea Level PressureIn,VisibilityMPH,Wind Direction,Wind SpeedMPH,Gust SpeedMPH,PrecipitationIn,Events,Conditions,WindDirDegrees,DateUTC
12:10 AM,57.2,46.4,67,30.01,10.0,WSW,4.6,-,N/A,,Clear,250,2012-10-07 07:10:00
12:35 AM,57.2,46.4,67,30.01,10.0,WSW,3.5,-,N/A,,Clear,240,2012-10-07 07:35:00
12:50 AM,57.2,46.4,67,30.00,10.0,SW,3.5,-,N/A,,Clear,230,2012-10-07 07:50:00
1:15 AM,57.2,46.4,67,30.00,10.0,WSW,3.5,-,N/A,,Clear,240,2012-10-07 08:15:00
1:30 AM,57.2,46.4,67,30.00,10.0,Calm,Calm,-,N/A,,Clear,0,2012-10-07 08:30:00
1:50 AM,55.4,46.4,72,30.00,10.0,Calm,Calm,-,N/A,,Clear,0,2012-10-07 08:50:00
2:15 AM,55.4,48.2,77,30.01,10.0,Calm,Calm,-,N/A,,Clear,0,2012-10-07 09:15:00
2:30 AM,55.4,48.2,77,30.01,10.0,Calm,Calm,-,N/A,,Clear,0,2012-10-07 09:30:00
2:55 AM,53.6,46.4,77,30.00,10.0,Calm,Calm,-,N/A,,Clear,0,2012-10-07 09:55:00
3:10 AM,53.6,48.2,82,30.00,1.8,Calm,Calm,-,N/A,,Clear,0,2012-10-07 10:10:00
3:30 AM,53.6,48.2,82,30.00,10.0,Calm,Calm,-,N/A,,Clear,0,2012-10-07 10:30:00
3:50 AM,55.4,48.2,77,30.00,10.0,South,3.5,-,N/A,,Clear,180,2012-10-07 10:50:00
4:10 AM,53.6,46.4,77,30.00,10.0,Calm,Calm,-,N/A,,Clear,0,2012-10-07 11:10:00
4:35 AM,53.6,46.4,77,30.00,10.0,SW,3.5,-,N/A,,Clear,220,2012-10-07 11:35:00
4:50 AM,53.6,46.4,77,30.00,10.0,SW,4.6,-,N/A,,Clear,220,2012-10-07 11:50:00
5:10 AM,53.6,46.4,77,30.00,10.0,Calm,Calm,-,N/A,,Clear,0,2012-10-07 12:10:00
5:30 AM,53.6,46.4,77,30.00,10.0,Calm,Calm,-,N/A,,Clear,0,2012-10-07 12:30:00
5:50 AM,53.6,46.4,77,30.00,10.0,Calm,Calm,-,N/A,,Clear,0,2012-10-07 12:50:00
6:15 AM,53.6,48.2,82,30.00,10.0,Calm,Calm,-,N/A,,Clear,0,2012-10-07 13:15:00
6:30 AM,53.6,48.2,82,30.01,2.5,Calm,Calm,-,N/A,,Clear,0,2012-10-07 13:30:00
6:47 AM,53.6,48.2,82,30.01,10.0,Calm,Calm,-,N/A,,Partly Cloudy,0,2012-10-07 13:47:00
6:50 AM,53.6,48.2,82,30.01,10.0,Calm,Calm,-,N/A,,Clear,0,2012-10-07 13:50:00
7:47 AM,53.6,48.2,82,30.03,15.0,Calm,Calm,-,N/A,,Partly Cloudy,0,2012-10-07 14:47:00
8:47 AM,57.2,48.2,72,30.04,20.0,Calm,Calm,-,N/A,,Partly Cloudy,0,2012-10-07 15:47:00
9:49 AM,60.8,50.0,68,30.04,15.0,SE,3.5,-,N/A,,Partly Cloudy,130,2012-10-07 16:49:00
10:52 AM,62.6,50.0,63,30.02,20.0,North,3.5,-,N/A,,Partly Cloudy,10,2012-10-07 17:52:00
11:47 AM,66.2,53.6,64,30.01,25.0,North,4.6,-,N/A,,Partly Cloudy,360,2012-10-07 18:47:00
12:47 PM,66.2,55.4,68,29.99,30.0,North,9.2,-,N/A,,Partly Cloudy,10,2012-10-07 19:47:00
1:47 PM,71.6,50.0,46,29.97,30.0,NNW,11.5,-,N/A,,Partly Cloudy,340,2012-10-07 20:47:00
2:51 PM,73.4,48.2,41,29.96,30.0,NNW,9.2,-,N/A,,Scattered Clouds,330,2012-10-07 21:51:00
3:57 PM,71.6,50.0,46,29.95,30.0,West,10.4,-,N/A,,Scattered Clouds,260,2012-10-07 22:57:00
4:49 PM,68.0,50.0,52,29.96,30.0,West,10.4,-,N/A,,Scattered Clouds,260,2012-10-07 23:49:00
5:47 PM,66.2,50.0,56,29.96,30.0,WSW,9.2,-,N/A,,Scattered Clouds,250,2012-10-08 00:47:00
6:47 PM,62.6,50.0,63,29.97,30.0,West,8.1,-,N/A,,Scattered Clouds,270,2012-10-08 01:47:00
7:53 PM,60.8,50.0,68,29.99,10.0,WNW,4.6,-,N/A,,Scattered Clouds,290,2012-10-08 02:53:00
8:47 PM,59.0,50.0,72,30.00,10.0,NW,3.5,-,N/A,,Scattered Clouds,310,2012-10-08 03:47:00
9:15 PM,59.0,50.0,72,30.01,10.0,West,3.5,-,N/A,,Clear,280,2012-10-08 04:15:00
9:30 PM,59.0,50.0,72,30.01,10.0,Calm,Calm,-,N/A,,Clear,0,2012-10-08 04:30:00
9:55 PM,59.0,48.2,67,30.01,10.0,Calm,Calm,-,N/A,,Clear,0,2012-10-08 04:55:00
10:10 PM,59.0,48.2,67,30.01,10.0,West,3.5,-,N/A,,Clear,260,2012-10-08 05:10:00
10:30 PM,59.0,48.2,67,30.02,10.0,Calm,Calm,-,N/A,,Clear,0,2012-10-08 05:30:00
10:50 PM,57.2,48.2,72,30.02,10.0,Calm,Calm,-,N/A,,Clear,0,2012-10-08 05:50:00
11:10 PM,57.2,48.2,72,30.02,10.0,Calm,Calm,-,N/A,,Clear,0,2012-10-08 06:10:00
11:30 PM,57.2,48.2,72,30.02,10.0,Calm,Calm,-,N/A,,Clear,0,2012-10-08 06:30:00
11:50 PM,57.2,48.2,72,30.02,10.0,Calm,Calm,-,N/A,,Clear,0,2012-10-08 06:50:00